Погода в Игнатове

Россия / Ивановская область     56°57′16″N   40°57′25″E
темп.,
°C
ветер,
м/с
пор.,
м/с
влажн.,
%
обл.,
%
осадки,
мм/ч
давл.,
гПа
погр.,
м
13 июня, вс
вс1300:00+14юв359793 0.0 1007113
03:00+13ююв2397100 0.0 100763
06:00+15ююв239499 0.0 1007152
09:00+20ююв237728 0.0 1007596
12:00+22ююв3467100 0.8 10061183
15:00+24ю345698 1.3 10061393
18:00+21ю247399 0.3 1006230
21:00+17зюз229066 1.0 100732
14 июня, пн
пн1400:00+15зюз229458 0.0 100941
03:00+14зюз239565 0.0 101063
06:00+16зюз249018 0.0 1011138
09:00+22юз236787 0.0 1013590
12:00+26з234723 0.0 10132124
15:00+23ссз236698 0.0 1014198
18:00+22ююв226997 0.1 101430
21:00+20ююз2276100 0.4 101426
15 июня, вт
вт1500:00+19з118361 0.1 101413
03:00+15сз11935 0.1 101411
06:00+18с11835 0.0 1015106
09:00+23ююз12645 0.0 1014641
12:00+26зюз135139 0.3 10121722
15:00+22вюв2376100 0.7 101148
18:00+23вюв238098 0.8 101097
21:00+19зюз228811 1.2 101030
16 июня, ср
ср1600:00+17ююз229131 0.1 100915
03:00+16юз119236 1.5 100911
06:00+18сз239289 3.3 1009140
09:00+21ссз337646 3.3 1009514
12:00+22ссз677768 1.8 1010911
15:00+21с796136 1.8 10121140
18:00+20ссз47635 0.0 10131203
21:00+14ссз36750 0.0 101593
17 июня, чт
чт1700:00+13ссз412710 0.0 1017247
03:00+10ссз410715 0.0 1019185
06:00+13с411660 0.0 1020311
09:00+18с47520 0.0 1021596
12:00+21с56430 0.0 10221584
15:00+22с45430 0.0 10221790
18:00+21ссз35540 0.0 1023866
21:00+16сз33785 0.0 102437